Location: ??????????
(48.4699°N, 37.9573°E)
Time: 20:19:59
(UTC+00:00)

Cosmos 923 Rocket - Pass Details

Date: 20 January 2021
Orbit: 758 x 785 km, 74.0° (Epoch: 01 March)

Event Time Altitude Azimuth Distance (km) Brightness Sun altitude
Rises 16:28:45 0° 335° (NNW) 3,288 7.5 -22.9°
Reaches altitude 10° 16:31:10 10° 333° (NNW) 2,354 6.8 -23.3°
Maximum altitude 16:36:29 70° 251° (WSW) 834 4.3 -24.2°
Drops below altitude 10° 16:41:45 10° 169° (SSE) 2,327 6.4 -25.0°
Enters shadow 16:42:33 - 168° (SSE) 2,636 6.7 -25.2°
